This demonstration page uses our WeatherBlox Daily Observations layout. Learn more.

39.29038, -76.61219

Hourly Observations for January 10, 2019

Temp ( °F °C ) Dew Point ( °F °C ) Humidity (%) Winds ( mph kmh ) Pressure ( in mb ) Visibility ( mi km ) Precip ( " mm )
12:54 am 00:54 undefined 31 -0.6 15 -9.4 52 52 undefined N/A 29.83 1010 N/A 0 0
1:54 am 01:54 undefined 32 0 13 -10.6 45 45 undefined N/A 29.85 1011 N/A 0 0
2:54 am 02:54 undefined 32 0 13 -10.6 45 45 undefined N/A 29.83 1010 N/A 0 0
3:54 am 03:54 undefined 32 0 13 -10.6 45 45 undefined N/A 29.85 1011 N/A 0 0
4:54 am 04:54 undefined 32 0 14 -10 47 47 undefined N/A 29.83 1010 N/A 0 0
5:54 am 05:54 undefined 31 -0.6 14 -10 49 49 undefined N/A 29.85 1011 N/A 0 0
6:54 am 06:54 undefined 32 0 14 -10 47 47 undefined N/A 29.85 1011 N/A 0 0
7:54 am 07:54 undefined 32 0 14 -10 47 47 undefined N/A 29.88 1012 N/A 0 0
8:54 am 08:54 undefined 33 0.6 14 -10 45 45 undefined N/A 29.91 1013 N/A 0 0
9:54 am 09:54 undefined 35 1.7 14 -10 42 42 undefined N/A 29.94 1014 N/A 0 0
10:54 am 10:54 undefined 36 2.2 14 -10 40 40 undefined N/A 29.94 1014 N/A 0 0
11:54 am 11:54 undefined 37 2.8 15 -9.4 41 41 undefined N/A 29.94 1014 N/A 0 0
12:54 pm 12:54 undefined 36 2.2 14 -10 40 40 undefined N/A 29.91 1013 N/A 0 0
1:54 pm 13:54 undefined 36 2.2 15 -9.4 42 42 undefined N/A 29.94 1014 N/A 0 0
2:54 pm 14:54 undefined 36 2.2 15 -9.4 42 42 undefined N/A 29.94 1014 N/A 0 0
3:54 pm 15:54 undefined 35 1.7 15 -9.4 44 44 undefined N/A 29.97 1015 N/A 0 0
4:54 pm 16:54 undefined 34 1.1 15 -9.4 46 46 undefined N/A 30 1016 N/A 0 0
5:54 pm 17:54 undefined 33 0.6 15 -9.4 47 47 undefined N/A 30.06 1018 N/A 0 0
6:54 pm 18:54 undefined 32 0 14 -10 47 47 undefined N/A 30.06 1018 N/A 0 0
7:54 pm 19:54 undefined 31 -0.6 13 -10.6 47 47 undefined N/A 30.06 1018 N/A 0 0
8:54 pm 20:54 undefined 31 -0.6 13 -10.6 47 47 undefined N/A 30.09 1019 N/A 0 0
9:54 pm 21:54 undefined 30 -1.1 12 -11.1 47 47 undefined N/A 30.09 1019 N/A 0 0
10:54 pm 22:54 undefined 30 -1.1 13 -10.6 49 49 undefined N/A 30.12 1020 N/A 0 0
11:54 pm 23:54 undefined 30 -1.1 12 -11.1 47 47 undefined N/A 30.12 1020 N/A 0 0

Powered by AerisWeather